Location: Goll?ig?dem
(16.6773°N, 80.7332°E)
Time: 07:54:16
(UTC+00:00)

ATLAS 2A CENTAUR R/B - Pass Details

Date: 21 April 2021
Orbit: 178 x 11654 km, 26.6° (Epoch: 06 May)

Event Time Altitude Azimuth Distance (km) Brightness Sun altitude
Exits shadow 22:50:10 24° 194° (SSW) 1,537 3.2 -20.8°
Maximum altitude 22:52:45 42° 138° (SE) 1,538 3.7 -20.2°
Drops below altitude 10° 23:06:50 10° 73° (ENE) 6,555 8.1 -17.1°
Sets 23:17:15 0° 69° (ENE) 9,853 9.6 -14.7°
